K9APR Weather Reports


time (UTC)temp
C
wind
direction
speed
KPH
gust
KPH
rain 1hr
cm
rain 24hr
cm
rain mn
cm
humidity
%
barometer
mb
20260831185729 31 311 1.6 3.2 0.00 0.00 0.00 66 1018.0
20260831184827 31 213 0.0 4.8 0.00 0.00 0.00 69 1018.2
20260831183928 31 310 4.8 4.8 0.00 0.00 0.00 68 1018.1
20260831183029 31 305 1.6 4.8 0.00 0.00 0.00 72 1018.1
20260831182129 30 310 3.2 8.0 0.00 0.00 0.00 70 1018.3
20260831181227 31 283 4.8 8.0 0.00 0.00 0.00 70 1018.3
20260831180328 31 311 3.2 4.8 0.00 0.00 0.00 72 1018.3
20260831175428 31 255 0.0 0.0 0.00 0.00 0.00 72 1018.3
20260831174528 30 304 0.0 0.0 0.00 0.00 0.00 74 1018.4
20260831173628 30 309 1.6 0.0 0.00 0.00 0.00 74 1018.5
20260831172729 30 312 0.0 1.6 0.00 0.00 0.00 73 1018.5
20260831171829 29 144 1.6 4.8 0.00 0.00 0.00 73 1018.7
20260831170932 29 305 3.2 8.0 0.00 0.00 0.00 74 1018.7
20260831165128 30 308 1.6 9.7 0.00 0.00 0.00 73 1018.7
20260831164228 30 158 1.6 3.2 0.00 0.00 0.00 75 1018.9
20260831163329 30 300 0.0 4.8 0.00 0.00 0.00 76 1018.9
20260831162428 29 301 0.0 0.0 0.00 0.00 0.00 76 1019.0
20260831161528 28 309 1.6 4.8 0.00 0.00 0.00 77 1019.0
20260831160629 28 166 1.6 1.6 0.00 0.00 0.00 78 1018.9
20260831155728 28 134 1.6 3.2 0.00 0.00 0.00 81 1019.0
20260831154829 27 296 0.0 1.6 0.00 0.00 0.00 82 1018.9
20260831153928 27 319 0.0 0.0 0.00 0.00 0.00 81 1019.0
20260831153027 27 193 0.0 3.2 0.00 0.00 0.00 81 1019.0
20260831152129 27 280 0.0 1.6 0.00 0.00 0.00 81 1018.9
20260831151309 27 172 0.0 0.0 0.00 0.00 0.00 82 1018.9
20260831151228 27 172 0.0 0.0 0.00 0.00 0.00 82 1018.9
20260831150328 26 259 0.0 4.8 0.00 0.00 0.00 82 1018.9
20260831145429 26 249 0.0 1.6 0.00 0.00 0.00 83 1018.8
20260831144528 26 118 0.0 0.0 0.00 0.00 0.00 82 1018.8
20260831143630 26 283 0.0 0.0 0.00 0.00 0.00 82 1018.8
20260831142729 26 153 0.0 0.0 0.00 0.00 0.00 83 1018.6
20260831141828 25 205 0.0 0.0 0.00 0.00 0.00 82 1018.6
20260831140928 25 172 0.0 1.6 0.00 0.00 0.00 83 1018.6
20260831140027 25 203 0.0 1.6 0.00 0.00 0.00 83 1018.7
20260831135207 24 171 0.0 3.2 0.00 0.00 0.00 85 1018.6
20260831135128 24 171 0.0 3.2 0.00 0.00 0.00 85 1018.6
20260831134228 23 159 0.0 3.2 0.00 0.00 0.00 86 1018.6
20260831133417 23 158 0.0 1.6 0.00 0.00 0.00 88 1018.7
20260831133328 23 158 0.0 1.6 0.00 0.00 0.00 88 1018.7
20260831132535 23 167 0.0 0.0 0.00 0.00 0.00 88 1018.7
20260831132429 23 167 0.0 0.0 0.00 0.00 0.00 88 1018.7
20260831131640 22 149 0.0 0.0 0.00 0.00 0.00 89 1018.6
20260831131607 22 149 0.0 0.0 0.00 0.00 0.00 89 1018.6
20260831131528 22 149 0.0 0.0 0.00 0.00 0.00 89 1018.6
20260831130659 22 149 0.0 0.0 0.00 0.00 0.00 89 1018.6
20260831130627 22 149 0.0 0.0 0.00 0.00 0.00 89 1018.6
20260831125804 21 149 0.0 0.0 0.00 0.00 0.00 89 1018.7
20260831125728 21 149 0.0 0.0 0.00 0.00 0.00 89 1018.7
20260831125013 21 149 0.0 0.0 0.00 0.00 0.00 89 1018.6
20260831124859 21 149 0.0 0.0 0.00 0.00 0.00 89 1018.6
20260831124827 21 149 0.0 0.0 0.00 0.00 0.00 89 1018.6
20260831124001 21 149 0.0 0.0 0.00 0.00 0.00 89 1018.6
20260831123928 21 149 0.0 0.0 0.00 0.00 0.00 89 1018.6
20260831123233 21 149 0.0 0.0 0.00 0.00 0.00 89 1018.5
20260831123115 21 149 0.0 0.0 0.00 0.00 0.00 89 1018.5
20260831123029 21 149 0.0 0.0 0.00 0.00 0.00 89 1018.5
20260831122129 21 154 0.0 0.0 0.00 0.00 0.00 89 1018.5
20260831121315 21 154 0.0 0.0 0.00 0.00 0.00 89 1018.4
20260831121229 21 154 0.0 0.0 0.00 0.00 0.00 89 1018.4
20260831120410 21 154 0.0 0.0 0.00 0.00 0.00 89 1018.3
20260831120336 21 154 0.0 0.0 0.00 0.00 0.00 89 1018.3
20260831115552 21 154 0.0 0.0 0.00 0.00 0.00 89 1018.4
20260831115502 21 154 0.0 0.0 0.00 0.00 0.00 89 1018.4
20260831115430 21 154 0.0 0.0 0.00 0.00 0.00 89 1018.4
20260831114602 21 154 0.0 0.0 0.00 0.00 0.00 90 1018.3
20260831114531 21 154 0.0 0.0 0.00 0.00 0.00 90 1018.3
20260831113659 21 154 0.0 0.0 0.00 0.00 0.00 90 1018.3
20260831113627 21 154 0.0 0.0 0.00 0.00 0.00 90 1018.3
20260831112920 20 154 0.0 0.0 0.00 0.00 0.00 90 1018.3
20260831112727 20 154 0.0 0.0 0.00 0.00 0.00 90 1018.3
20260831111908 20 154 0.0 0.0 0.00 0.00 0.00 90 1018.3
20260831111828 20 154 0.0 0.0 0.00 0.00 0.00 90 1018.3
20260831111015 20 154 0.0 0.0 0.00 0.00 0.00 89 1018.2
20260831110928 20 154 0.0 0.0 0.00 0.00 0.00 89 1018.2
20260831110238 21 154 0.0 0.0 0.00 0.00 0.00 89 1018.1
20260831110134 21 154 0.0 0.0 0.00 0.00 0.00 89 1018.1
20260831110027 21 154 0.0 0.0 0.00 0.00 0.00 89 1018.1
20260831105343 21 154 0.0 0.0 0.00 0.00 0.00 89 1018.0
20260831105310 21 154 0.0 0.0 0.00 0.00 0.00 89 1018.0
20260831105128 21 154 0.0 0.0 0.00 0.00 0.00 89 1018.0
20260831104437 21 154 0.0 0.0 0.00 0.00 0.00 89 1017.9
20260831104350 21 154 0.0 0.0 0.00 0.00 0.00 89 1017.9
20260831104228 21 154 0.0 0.0 0.00 0.00 0.00 89 1017.9
20260831103641 21 154 0.0 0.0 0.00 0.00 0.00 88 1017.7
20260831103405 21 154 0.0 0.0 0.00 0.00 0.00 88 1017.7
20260831103328 21 154 0.0 0.0 0.00 0.00 0.00 88 1017.7
20260831102428 21 154 0.0 0.0 0.00 0.00 0.00 89 1017.6
20260831101529 21 154 0.0 0.0 0.00 0.00 0.00 89 1017.4
20260831100957 21 154 0.0 0.0 0.00 0.00 0.00 90 1017.7
20260831100813 21 154 0.0 0.0 0.00 0.00 0.00 90 1017.7
20260831100702 21 154 0.0 0.0 0.00 0.00 0.00 90 1017.7
20260831100630 21 154 0.0 0.0 0.00 0.00 0.00 90 1017.7
20260831095729 21 154 0.0 0.0 0.00 0.00 0.00 90 1017.6
20260831094828 21 154 0.0 0.0 0.00 0.00 0.00 91 1017.7
20260831093928 20 154 0.0 0.0 0.00 0.00 0.00 91 1017.5
20260831093103 20 154 0.0 0.0 0.00 0.00 0.00 91 1017.6
20260831093030 20 154 0.0 0.0 0.00 0.00 0.00 91 1017.6
20260831092129 20 154 0.0 0.0 0.00 0.00 0.00 91 1017.6
20260831091634 20 154 0.0 0.0 0.00 0.00 0.00 91 1017.8
20260831091313 20 154 0.0 0.0 0.00 0.00 0.00 91 1017.8
20260831091228 20 154 0.0 0.0 0.00 0.00 0.00 91 1017.8
20260831090417 20 154 0.0 0.0 0.00 0.00 0.00 91 1017.8
20260831090328 20 154 0.0 0.0 0.00 0.00 0.00 91 1017.8
20260831085428 20 154 0.0 0.0 0.00 0.00 0.00 90 1017.9
20260831083804 20 154 0.0 0.0 0.00 0.00 0.00 91 1017.7
20260831083629 20 154 0.0 0.0 0.00 0.00 0.00 91 1017.7
20260831083350 20 154 0.0 0.0 0.00 0.00 0.00 90 1017.6
20260831083315 20 154 0.0 0.0 0.00 0.00 0.00 90 1017.6
20260831083242 20 154 0.0 0.0 0.00 0.00 0.00 90 1017.6
20260831083158 20 154 0.0 0.0 0.00 0.00 0.00 90 1017.6
20260831083127 20 154 0.0 0.0 0.00 0.00 0.00 90 1017.6
20260831082727 20 154 0.0 0.0 0.00 0.00 0.00 90 1017.6
20260831081830 20 154 0.0 0.0 0.00 0.00 0.00 90 1017.5
20260831081159 20 154 0.0 0.0 0.00 0.00 0.00 90 1017.5
20260831081042 20 154 0.0 0.0 0.00 0.00 0.00 90 1017.5
20260831081000 20 154 0.0 0.0 0.00 0.00 0.00 90 1017.5
20260831080928 20 154 0.0 0.0 0.00 0.00 0.00 90 1017.5
20260831080111 20 154 0.0 0.0 0.00 0.00 0.00 90 1017.4
20260831080027 20 154 0.0 0.0 0.00 0.00 0.00 90 1017.4
20260831075128 20 154 0.0 0.0 0.00 0.00 0.00 89 1017.3
20260831074422 21 154 0.0 0.0 0.00 0.00 0.00 89 1017.3
20260831074234 21 154 0.0 0.0 0.00 0.00 0.00 89 1017.3
20260831073327 21 154 0.0 0.0 0.00 0.00 0.00 89 1017.4
20260831072609 21 154 0.0 0.0 0.00 0.00 0.00 89 1017.4
20260831072538 21 154 0.0 0.0 0.00 0.00 0.00 89 1017.4
20260831072507 21 154 0.0 0.0 0.00 0.00 0.00 89 1017.4
20260831072430 21 154 0.0 0.0 0.00 0.00 0.00 89 1017.4
20260831071658 21 154 0.0 0.0 0.00 0.00 0.00 89 1017.4
20260831071612 21 154 0.0 0.0 0.00 0.00 0.00 89 1017.4
20260831071528 21 154 0.0 0.0 0.00 0.00 0.00 89 1017.4
20260831070904 21 154 0.0 0.0 0.00 0.00 0.00 89 1017.2
20260831070700 21 154 0.0 0.0 0.00 0.00 0.00 89 1017.2
20260831070628 21 154 0.0 0.0 0.00 0.00 0.00 89 1017.2
20260831065802 21 154 0.0 0.0 0.00 0.00 0.00 89 1017.3
20260831065727 21 154 0.0 0.0 0.00 0.00 0.00 89 1017.3
20260831065039 21 154 0.0 0.0 0.00 0.00 0.00 89 1017.3
20260831065006 21 154 0.0 0.0 0.00 0.00 0.00 89 1017.3
20260831064902 21 154 0.0 0.0 0.00 0.00 0.00 89 1017.3
20260831064831 21 154 0.0 0.0 0.00 0.00 0.00 89 1017.3
20260831064409 21 154 0.0 0.0 0.00 0.00 0.00 89 1017.3
20260831064139 21 154 0.0 0.0 0.00 0.00 0.00 89 1017.3
20260831064009 21 154 0.0 0.0 0.00 0.00 0.00 89 1017.3
20260831063927 21 154 0.0 0.0 0.00 0.00 0.00 89 1017.3
20260831063150 21 154 0.0 0.0 0.00 0.00 0.00 89 1017.6
20260831063028 21 154 0.0 0.0 0.00 0.00 0.00 89 1017.6
20260831062201 21 154 0.0 0.0 0.00 0.00 0.00 89 1017.6
20260831062128 21 154 0.0 0.0 0.00 0.00 0.00 89 1017.6
20260831060508 21 154 0.0 0.0 0.00 0.00 0.00 89 1017.8
20260831060418 21 154 0.0 0.0 0.00 0.00 0.00 89 1017.8
20260831060328 21 154 0.0 0.0 0.00 0.00 0.00 89 1017.8
20260831055604 21 154 0.0 0.0 0.00 0.00 0.00 89 1017.8
20260831055459 21 154 0.0 0.0 0.00 0.00 0.00 89 1017.8
20260831055428 21 154 0.0 0.0 0.00 0.00 0.00 89 1017.8
20260831054603 21 154 0.0 0.0 0.00 0.00 0.00 89 1017.8
20260831054528 21 154 0.0 0.0 0.00 0.00 0.00 89 1017.8
20260831053902 21 154 0.0 0.0 0.00 0.00 0.00 89 1017.9
20260831053627 21 154 0.0 0.0 0.00 0.00 0.00 89 1017.9
20260831052816 21 154 0.0 0.0 0.00 0.00 0.00 89 1018.1
20260831052730 21 154 0.0 0.0 0.00 0.00 0.00 89 1018.1
20260831052352 21 154 0.0 0.0 0.00 0.00 0.00 89 1018.1
20260831052156 21 154 0.0 0.0 0.00 0.00 0.00 89 1018.1
20260831052006 21 154 0.0 0.0 0.00 0.00 0.00 89 1018.1
20260831051900 21 154 0.0 0.0 0.00 0.00 0.00 89 1018.1
20260831051829 21 154 0.0 0.0 0.00 0.00 0.00 89 1018.1
20260831050111 21 154 0.0 0.0 0.00 0.00 0.00 89 1018.1
20260831050028 21 154 0.0 0.0 0.00 0.00 0.00 89 1018.1
20260831045128 21 154 0.0 0.0 0.00 0.00 0.00 89 1017.9
20260831044356 21 154 0.0 0.0 0.00 0.00 0.00 89 1017.8
20260831044258 21 154 0.0 0.0 0.00 0.00 0.00 89 1017.8
20260831044228 21 154 0.0 0.0 0.00 0.00 0.00 89 1017.8
20260831043401 21 154 0.0 0.0 0.00 0.00 0.00 89 1017.9
20260831043328 21 154 0.0 0.0 0.00 0.00 0.00 89 1017.9
20260831042513 21 154 0.0 0.0 0.00 0.00 0.00 89 1018.0
20260831042429 21 154 0.0 0.0 0.00 0.00 0.00 89 1018.0
20260831042104 21 154 0.0 0.0 0.00 0.00 0.00 89 1017.9
20260831041851 21 154 0.0 0.0 0.00 0.00 0.00 89 1017.9
20260831041814 21 154 0.0 0.0 0.00 0.00 0.00 89 1017.9
20260831041636 21 154 0.0 0.0 0.00 0.00 0.00 89 1017.9
20260831041602 21 154 0.0 0.0 0.00 0.00 0.00 89 1017.9
20260831041529 21 154 0.0 0.0 0.00 0.00 0.00 89 1017.9
20260831040904 22 154 0.0 0.0 0.00 0.00 0.00 89 1017.9
20260831040659 22 154 0.0 0.0 0.00 0.00 0.00 89 1017.9
20260831040627 22 154 0.0 0.0 0.00 0.00 0.00 89 1017.9
20260831040047 22 154 0.0 0.0 0.00 0.00 0.00 89 1017.7
20260831035910 22 154 0.0 0.0 0.00 0.00 0.00 89 1017.7
20260831035839 22 154 0.0 0.0 0.00 0.00 0.00 89 1017.7
20260831035729 22 154 0.0 0.0 0.00 0.00 0.00 89 1017.7
20260831035212 22 154 0.0 0.0 0.00 0.00 0.00 89 1017.9
20260831035033 22 154 0.0 0.0 0.00 0.00 0.00 89 1017.9
20260831034955 22 154 0.0 0.0 0.00 0.00 0.00 89 1017.9
20260831034924 22 154 0.0 0.0 0.00 0.00 0.00 89 1017.9
20260831034828 22 154 0.0 0.0 0.00 0.00 0.00 89 1017.9
20260831034155 22 154 0.0 0.0 0.00 0.00 0.00 89 1017.9
20260831033958 22 154 0.0 0.0 0.00 0.00 0.00 89 1017.9
20260831033927 22 154 0.0 0.0 0.00 0.00 0.00 89 1017.9
20260831033307 22 154 0.0 0.0 0.00 0.00 0.00 89 1018.1
20260831033218 22 154 0.0 0.0 0.00 0.00 0.00 89 1018.1
20260831033108 22 154 0.0 0.0 0.00 0.00 0.00 89 1018.1
20260831033034 22 154 0.0 0.0 0.00 0.00 0.00 89 1018.1
20260831032420 22 154 0.0 0.0 0.00 0.00 0.00 89 1018.2
20260831032338 22 154 0.0 0.0 0.00 0.00 0.00 89 1018.2
20260831032127 22 154 0.0 0.0 0.00 0.00 0.00 89 1018.2
20260831031622 22 154 0.0 0.0 0.00 0.00 0.00 90 1018.1
20260831031227 22 154 0.0 0.0 0.00 0.00 0.00 90 1018.1
20260831030406 22 154 0.0 0.0 0.00 0.00 0.00 90 1018.1
20260831030329 22 154 0.0 0.0 0.00 0.00 0.00 90 1018.1
20260831025639 22 154 0.0 0.0 0.00 0.00 0.00 90 1018.2
20260831025428 22 154 0.0 0.0 0.00 0.00 0.00 90 1018.2
20260831024653 22 154 0.0 0.0 0.00 0.00 0.00 90 1018.2
20260831024612 22 154 0.0 0.0 0.00 0.00 0.00 90 1018.2
20260831024527 22 154 0.0 0.0 0.00 0.00 0.00 90 1018.2
20260831023834 22 154 0.0 0.0 0.00 0.00 0.00 89 1018.2
20260831023628 22 154 0.0 0.0 0.00 0.00 0.00 89 1018.2
20260831022943 22 154 0.0 0.0 0.00 0.00 0.00 90 1018.2
20260831022728 22 154 0.0 0.0 0.00 0.00 0.00 90 1018.2
20260831021826 22 154 0.0 0.0 0.00 0.00 0.00 90 1018.2
20260831021154 22 154 0.0 0.0 0.00 0.00 0.00 90 1018.2
20260831020928 22 154 0.0 0.0 0.00 0.00 0.00 90 1018.2
20260831020027 22 154 0.0 0.0 0.00 0.00 0.00 90 1018.2
20260831015307 21 154 0.0 0.0 0.00 0.00 0.00 89 1018.1
20260831015127 21 154 0.0 0.0 0.00 0.00 0.00 89 1018.1
20260831014446 22 154 0.0 0.0 0.00 0.00 0.00 89 1018.0
20260831014229 22 154 0.0 0.0 0.00 0.00 0.00 89 1018.0
20260831013329 22 154 0.0 0.0 0.00 0.00 0.00 89 1017.9
20260831012428 22 154 0.0 0.0 0.00 0.00 0.00 89 1017.8
20260831011528 22 154 0.0 0.0 0.00 0.00 0.00 89 1017.8
20260831010700 22 154 0.0 0.0 0.00 0.00 0.00 88 1017.8
20260831010628 22 154 0.0 0.0 0.00 0.00 0.00 88 1017.8
20260831005804 22 154 0.0 0.0 0.00 0.00 0.00 87 1017.8
20260831005728 22 154 0.0 0.0 0.00 0.00 0.00 87 1017.8
20260831004828 22 154 0.0 0.0 0.00 0.00 0.00 87 1017.7
20260831004235 23 154 0.0 0.0 0.00 0.00 0.00 86 1017.7
20260831004003 23 154 0.0 0.0 0.00 0.00 0.00 86 1017.7
20260831003928 23 154 0.0 0.0 0.00 0.00 0.00 86 1017.7
20260831003417 23 154 0.0 0.0 0.00 0.00 0.00 86 1017.7
20260831003027 23 154 0.0 0.0 0.00 0.00 0.00 86 1017.7
20260831002217 23 154 0.0 0.0 0.00 0.00 0.00 85 1017.6
20260831002128 23 154 0.0 0.0 0.00 0.00 0.00 85 1017.6
20260831001324 23 154 0.0 0.0 0.00 0.00 0.00 85 1017.6
20260831001227 23 154 0.0 0.0 0.00 0.00 0.00 85 1017.6
20260831000328 24 154 0.0 0.0 0.00 0.00 0.00 84 1017.5
20260830235458 25 154 0.0 0.0 0.00 0.00 0.00 83 1017.6
20260830235428 25 154 0.0 0.0 0.00 0.00 0.00 83 1017.6
20260830234527 25 154 0.0 0.0 0.00 0.00 0.00 82 1017.5
20260830232800 26 154 0.0 0.0 0.00 0.00 0.00 80 1017.7
20260830232729 26 154 0.0 0.0 0.00 0.00 0.00 80 1017.7
20260830231831 26 154 0.0 0.0 0.00 0.00 0.00 80 1017.7
20260830230928 27 154 0.0 0.0 0.00 0.00 0.00 78 1017.5
20260830230028 27 154 0.0 0.0 0.00 0.00 0.00 77 1017.4
20260830225128 27 154 0.0 0.0 0.00 0.00 0.00 77 1017.2
20260830224227 27 154 0.0 0.0 0.00 0.00 0.00 75 1017.2
20260830223328 27 154 0.0 0.0 0.00 0.00 0.00 73 1017.2
20260830222428 27 154 0.0 0.0 0.00 0.00 0.00 72 1017.2
20260830221528 27 154 0.0 0.0 0.00 0.00 0.00 71 1017.2
20260830220629 27 106 0.0 1.6 0.00 0.00 0.00 73 1016.9
20260830215728 27 133 0.0 0.0 0.00 0.00 0.00 73 1016.9
20260830214828 27 154 0.0 1.6 0.00 0.00 0.00 73 1016.9
20260830213928 27 197 0.0 1.6 0.00 0.00 0.00 73 1017.1
20260830213029 27 133 0.0 1.6 0.00 0.00 0.00 77 1017.2
20260830212128 26 126 0.0 1.6 0.00 0.00 0.00 76 1017.1
20260830211228 26 149 0.0 0.0 0.00 0.00 0.00 77 1017.3
20260830210328 26 154 0.0 1.6 0.00 0.00 0.00 76 1017.3
20260830205427 26 126 0.0 0.0 0.00 0.00 0.00 76 1017.5
20260830204529 26 151 0.0 0.0 0.00 0.00 0.00 76 1017.5
20260830203627 25 147 0.0 0.0 0.00 0.00 0.00 76 1017.5
20260830202728 25 134 0.0 0.0 0.00 0.00 0.00 76 1017.4
20260830201827 26 147 0.0 0.0 0.00 0.00 0.00 75 1017.3
20260830200929 26 151 0.0 0.0 0.00 0.00 0.00 73 1017.7
20260830200028 26 214 0.0 0.0 0.00 0.00 0.00 73 1017.7
20260830195127 26 128 1.6 3.2 0.00 0.00 0.00 73 1017.6
20260830194227 27 125 0.0 3.2 0.00 0.00 0.00 72 1017.9
20260830193328 27 125 0.0 1.6 0.00 0.00 0.00 74 1018.3
20260830192427 27 135 0.0 0.0 0.00 0.00 0.00 74 1018.7
20260830191527 27 136 0.0 1.6 0.00 0.00 0.00 72 1018.9
20260830190628 27 135 0.0 1.6 0.00 0.00 0.00 71 1019.0